This demonstration page uses our WeatherBlox Daily Observations layout. Learn more.

Left ArrowRight Arrow

Hourly Observations for March 19, 2020

Temp ( °F °C ) Dew Point ( °F °C ) Humidity (%) Winds ( mph kmh ) Pressure ( in mb ) Visibility ( mi km ) Precip ( " mm )
12:34 am 00:34 Cloudy with Light Rain 58 14.4 56 13.3 93 93 W 5 7 30.08 1019 8 12.87472 0.001 0.001
12:49 am 00:49 Cloudy 57 14 55 13 94 94 WSW 5 7 30.07 1018 8 12.87472 0.001 0.001
12:53 am 00:53 Cloudy 57 13.9 56 13.3 96 96 W 3 6 30.08 1019 9 14.48406 0.001 0.001
1:04 am 01:04 Cloudy 57 13.9 56 13.3 96 96 W 3 6 30.08 1019 9 14.48406 N/A
1:24 am 01:24 Cloudy with Mist and Fog 57 13.9 56 13.3 96 96 W 3 6 30.08 1019 6 9.65604 N/A
1:40 am 01:40 Cloudy with Light Rain 57 13.9 56 13.3 96 96 W 3 6 30.09 1019 2 3.21868 0.01 0.254
1:50 am 01:50 Cloudy with Light Rain 57 14 55 13 94 94 N N/A 30.09 1019 2 3.21868 0.01 0.254
1:51 am 01:51 Cloudy with Light Rain 57 13.9 56 13.3 96 96 WNW 3 6 30.09 1019 2 3.21868 0.01 0.254
1:58 am 01:58 Cloudy with Light Rain 56 13.3 55 12.8 97 97 WNW 3 6 30.1 1019 1.5 2.41401 0.001 0.001
2:12 am 02:12 Cloudy with Light Rain 56 13.3 55 12.8 97 97 WNW 5 7 30.11 1020 2 3.21868 0.01 0.254
2:19 am 02:19 Cloudy with Mist and Fog 56 13.3 55 12.8 97 97 WNW 5 7 30.11 1020 3 4.82802 0.01 0.254
2:39 am 02:39 Cloudy with Light Rain 56 13.3 55 12.8 97 97 WNW 5 7 30.12 1020 5 8.0467 0.01 0.254
2:49 am 02:49 Cloudy 55 13 54 12 94 94 WNW 6 9 30.11 1020 8 12.87472 0.01 0.254
2:53 am 02:53 Cloudy 56 13.3 54 12.2 93 93 W 6 9 30.12 1020 9 14.48406 0.01 0.254
3:21 am 03:21 Cloudy with Mist and Fog 55 12.8 54 12.2 96 96 WNW 3 6 30.12 1020 4 6.43736 N/A
3:49 am 03:49 Cloudy 55 13 54 12 94 94 WNW 5 7 30.12 1020 10 16.0934 0.01 0.254
3:53 am 03:53 Cloudy 55 12.8 53 11.7 93 93 WNW 3 6 30.13 1020 10 16.0934 0.01 0.254
4:23 am 04:23 Cloudy 55 12.8 54 12.2 96 96 WNW 3 6 30.14 1021 10 16.0934 N/A
4:53 am 04:53 Cloudy 54 12.2 52 11.1 93 93 NW 6 9 30.14 1021 10 16.0934 N/A
5:20 am 05:20 Cloudy 53 11.7 52 11.1 96 96 NNW 3 6 30.14 1021 10 16.0934 N/A
5:28 am 05:28 Cloudy 53 11.7 52 11.1 96 96 N 3 6 30.14 1021 10 16.0934 N/A
5:35 am 05:35 Cloudy 53 11.7 51 10.6 93 93 NNW 3 6 30.15 1021 10 16.0934 N/A
5:53 am 05:53 Cloudy 53 11.7 51 10.6 93 93 N N/A 30.15 1021 10 16.0934 N/A
6:00 am 06:00 Cloudy 52 11.1 51 10.6 97 97 N N/A 30.16 1021 10 16.0934 N/A
6:40 am 06:40 Cloudy 51 10.6 50 10 96 96 N N/A 30.17 1022 10 16.0934 N/A
6:53 am 06:53 Cloudy 51 10.6 50 10 96 96 E 3 6 30.16 1021 9 14.48406 N/A
7:05 am 07:05 Cloudy 51 10.6 50 10 96 96 N N/A 30.16 1021 8 12.87472 N/A
7:53 am 07:53 Cloudy with Mist and Fog 51 10.6 50 10 96 96 N N/A 30.17 1022 4 6.43736 N/A
8:53 am 08:53 Cloudy with Mist and Fog 52 11.1 51 10.6 97 97 S 3 6 30.17 1022 6 9.65604 N/A
9:53 am 09:53 Cloudy 54 12.2 52 11.1 93 93 ESE 3 6 30.16 1021 10 16.0934 N/A
10:53 am 10:53 Cloudy 55 12.8 52 11.1 90 90 ESE 5 7 30.15 1021 10 16.0934 N/A
11:53 am 11:53 Cloudy 57 13.9 53 11.7 87 87 E 7 11 30.12 1020 10 16.0934 N/A
12:02 pm 12:02 Cloudy 57 13.9 53 11.7 87 87 VRB 5 7 30.13 1020 10 16.0934 N/A
12:53 pm 12:53 Cloudy 58 14.4 54 12.2 87 87 VRB 5 7 30.11 1020 10 16.0934 N/A
1:43 pm 13:43 Cloudy with Light Rain 58 14.4 56 13.3 93 93 N N/A 30.09 1019 5 8.0467 0.01 0.254
1:53 pm 13:53 Cloudy with Light Rain 58 14.4 56 13.3 93 93 N N/A 30.09 1019 6 9.65604 0.02 0.508
2:10 pm 14:10 Cloudy with Rain 58 14.4 57 13.9 97 97 N N/A 30.08 1019 2.5 4.02335 0.04 1.016
2:21 pm 14:21 Cloudy with Rain 58 14.4 57 13.9 97 97 E 5 7 30.07 1018 2.5 4.02335 0.06 1.524
2:30 pm 14:30 Cloudy with Rain 59 15 57 13.9 93 93 N N/A 30.07 1018 3 4.82802 0.08 2.032
2:53 pm 14:53 Cloudy with Heavy Rain 59 15 57 13.9 93 93 N N/A 30.05 1018 2 3.21868 0.13 3.302
3:08 pm 15:08 Cloudy with Rain 59 15 58 14.4 96 96 N N/A 30.04 1017 1.75 2.816345 0.06 1.524
3:30 pm 15:30 Cloudy with Rain 59 15 58 14.4 96 96 E 3 6 30.02 1016 2 3.21868 0.13 3.302
3:44 pm 15:44 Cloudy with Heavy Rain 59 15 58 14.4 96 96 N N/A 30.01 1016 1.5 2.41401 0.19 4.826
3:53 pm 15:53 Cloudy with Heavy Rain 59 15 59 15 100 100 E 5 7 29.99 1016 1 1.60934 0.24 6.096
4:08 pm 16:08 Cloudy with Heavy Rain 59 15 59 15 100 100 VRB 3 6 29.99 1015 0.75 1.207005 0.07 1.778
4:12 pm 16:12 Cloudy with Heavy Rain 60 15.6 59 15 96 96 VRB 6 9 29.99 1015 1 1.60934 0.1 2.54
4:15 pm 16:15 Cloudy with Heavy Rain 60 15.6 59 15 96 96 VRB 5 7 29.99 1015 1 1.60934 0.12 3.048
4:33 pm 16:33 Cloudy with Rain 61 16.1 60 15.6 97 97 VRB 3 6 29.99 1016 1.75 2.816345 0.18 4.572
4:38 pm 16:38 Cloudy with Light Rain 61 16.1 60 15.6 97 97 N N/A 29.99 1016 3 4.82802 0.19 4.826
4:53 pm 16:53 Cloudy 61 16.1 60 15.6 97 97 N N/A 29.98 1015 10 16.0934 0.19 4.826
5:15 pm 17:15 Cloudy with Light Rain 62 16.7 60 15.6 93 93 N N/A 29.96 1015 10 16.0934 0.001 0.001
5:34 pm 17:34 Cloudy 63 17.2 61 16.1 93 93 N N/A 29.95 1014 10 16.0934 0.001 0.001
5:49 pm 17:49 Mostly Cloudy with Light Rain 64 18 61 16 88 88 S 5 7 29.95 1014 10 16.0934 0.001 0.001
5:53 pm 17:53 Mostly Cloudy with Light Rain 64 17.8 61 16.1 90 90 VRB 5 7 29.96 1015 10 16.0934 0.001 0.001
6:04 pm 18:04 Mostly Cloudy with Rain 63 17.2 62 16.7 97 97 VRB 6 9 29.95 1014 2 3.21868 0.03 0.762
6:06 pm 18:06 Cloudy with Heavy Rain 63 17.2 62 16.7 97 97 VRB 5 7 29.94 1014 1.5 2.41401 0.06 1.524
6:13 pm 18:13 Cloudy with Light Rain 64 17.8 62 16.7 93 93 VRB 6 9 29.94 1014 1.75 2.816345 0.06 1.524
6:16 pm 18:16 Cloudy with Light Rain 64 17.8 62 16.7 93 93 VRB 3 6 29.94 1014 4 6.43736 0.06 1.524
6:53 pm 18:53 Cloudy with Light Rain 65 18.3 63 17.2 93 93 W 7 11 29.95 1014 4 6.43736 0.07 1.778
6:55 pm 18:55 Cloudy with Rain 65 18.3 63 17.2 93 93 SW 5 7 29.95 1014 1.25 2.011675 0.04 1.016
7:03 pm 19:03 Cloudy with Rain 64 17.8 63 17.2 96 96 SSW 8 13 29.95 1014 0.75 1.207005 0.08 2.032
7:07 pm 19:07 Cloudy with Light Rain 65 18.3 63 17.2 93 93 SSW 5 7 29.95 1014 2 3.21868 0.08 2.032
7:11 pm 19:11 Cloudy with Light Rain 65 18.3 63 17.2 93 93 S 6 9 29.95 1014 3 4.82802 0.09 2.286
7:23 pm 19:23 Cloudy with Light Rain 66 18.9 63 17.2 90 90 SSW 6 9 29.95 1014 8 12.87472 0.09 2.286
7:53 pm 19:53 Cloudy with Light Rain 65 18.3 63 17.2 93 93 SSW 3 6 29.96 1015 7 11.26538 0.09 2.286
8:53 pm 20:53 Cloudy with Light Rain 66 18.9 63 17.2 90 90 S 9 15 29.92 1013 10 16.0934 0.03 0.762
9:53 pm 21:53 Cloudy 67 19.4 63 17.2 87 87 SSW 8 13 29.93 1014 10 16.0934 0.01 0.254
10:32 pm 22:32 Cloudy 68 20 63 17.2 84 84 SW 9 15 29.93 1013 10 16.0934 N/A
10:53 pm 22:53 Cloudy 68 20 63 17.2 84 84 SSW 13 20 29.93 1013 10 16.0934 N/A
11:14 pm 23:14 Partly Cloudy 68 20 62 16.7 81 81 SW 10 17 29.94 1014 10 16.0934 0.001 0.001
11:37 pm 23:37 Mostly Cloudy with Heavy Rain 66 18.9 63 17.2 90 90 SW 15 24 29.96 1014 1.75 2.816345 0.11 2.794
11:44 pm 23:44 Cloudy with Rain 66 18.9 63 17.2 90 90 WSW 12 19 29.96 1014 1.5 2.41401 0.14 3.556
11:46 pm 23:46 Cloudy with Rain 66 18.9 63 17.2 90 90 WSW 10 17 29.97 1015 2 3.21868 0.14 3.556
11:53 pm 23:53 Cloudy with Rain 65 18.3 63 17.2 93 93 WSW 9 15 29.97 1015 1.75 2.816345 0.2 5.08

Powered by AerisWeather